Vorticity
nan nan nan nan nan nan nan nan nan nan nan nan nan nan nan nan nan nan nan nan nan nan nan nan nan nan nan nan nan nan nan nan nan nan nan nan nan nan nan nan nan nan nan
nan 7 7 7 7 7 6 8 8 7 10 11 8 9 11 8 8 6 7 6 3 8 13 14 16 11 6 5 7 8 7 7 7 6 6 5 6 6 6 6 7 8 nan
nan 8 8 7 6 6 7 8 8 8 9 10 11 9 8 8 11 7 5 10 13 9 7 5 6 9 15 6 7 7 8 6 7 6 6 6 6 6 6 6 6 7 nan
nan 10 9 8 8 8 9 8 9 9 8 9 10 10 8 9 8 8 7 8 7 11 12 6 4 -0 10 12 9 7 6 6 7 7 6 6 6 6 6 6 6 6 nan
nan 11 10 7 8 10 9 8 8 9 7 8 8 11 10 9 10 9 9 8 7 6 9 13 11 10 6 12 10 8 7 6 6 7 6 6 6 6 6 6 6 6 nan
nan 9 8 7 9 9 6 6 7 8 11 9 8 10 11 11 11 9 8 8 9 8 6 8 9 16 15 13 13 9 7 6 6 5 6 6 6 7 6 6 6 6 nan
nan 10 8 7 9 8 7 6 6 8 9 10 13 11 11 13 14 9 9 9 8 10 8 6 6 9 17 19 14 11 9 8 6 6 6 6 7 7 7 6 6 6 nan
nan 9 9 8 9 8 8 8 9 8 8 8 10 10 10 11 16 14 9 9 8 9 11 9 6 5 6 16 19 16 12 10 8 7 7 7 7 7 7 7 6 6 nan
nan 8 9 9 9 10 8 9 9 8 9 8 8 9 9 6 8 14 12 13 11 9 10 12 11 8 7 7 14 15 13 14 14 9 8 8 7 7 6 7 7 7 nan
nan 8 9 9 10 9 8 9 8 10 10 9 8 8 4 8 6 8 9 10 14 11 10 9 11 12 9 9 12 14 11 9 11 13 11 8 8 8 6 7 7 7 nan
nan 8 9 10 11 10 9 8 10 9 11 10 8 6 8 9 10 9 6 7 9 10 11 12 12 11 12 11 9 11 13 10 10 10 10 11 9 7 6 7 7 7 nan
nan 7 9 11 11 10 10 10 10 11 10 9 9 10 9 6 8 8 10 7 9 10 8 12 14 12 11 11 12 12 12 9 11 11 8 10 11 9 7 6 5 6 nan
nan 8 10 11 11 10 11 11 14 14 11 10 9 9 9 9 6 6 6 8 8 7 8 7 11 11 11 11 14 12 12 13 12 13 10 9 11 12 10 9 8 7 nan
nan 8 10 10 10 11 13 14 13 12 17 19 14 10 9 9 10 9 6 6 9 9 6 9 7 9 10 13 14 15 17 16 13 10 15 16 13 13 12 10 10 10 nan
nan 8 9 10 12 12 12 14 11 9 14 17 19 17 16 14 11 11 11 8 7 6 6 12 7 7 12 7 10 19 17 22 30 22 13 8 11 16 20 15 11 10 nan
nan 9 9 10 12 11 13 14 11 11 13 12 11 13 15 14 13 13 14 15 12 9 9 8 8 7 8 8 7 12 14 11 14 27 35 35 21 12 10 13 16 17 nan
nan 9 9 9 10 11 12 13 10 10 10 11 10 9 13 14 13 11 12 12 13 15 13 10 9 6 8 7 10 12 11 8 -2 6 16 29 32 31 31 27 16 18 nan
nan 9 10 9 10 11 10 11 11 10 9 9 11 9 12 14 12 14 13 12 13 14 15 11 10 9 5 7 10 10 10 9 2 -0 4 11 17 20 19 22 25 29 nan
nan 9 9 9 8 10 10 10 10 11 10 9 9 11 9 13 15 14 14 14 13 13 15 15 10 11 4 6 11 9 6 9 6 3 4 1 5 8 9 6 12 15 nan
nan 9 9 11 10 10 9 9 10 10 11 10 10 11 10 12 16 18 13 14 15 13 12 11 11 12 10 8 10 8 8 6 7 4 6 3 -1 -1 2 7 7 10 nan
nan 9 9 10 13 10 12 13 11 9 10 10 10 10 8 6 9 22 20 17 19 13 12 10 11 11 11 8 9 14 13 8 2 7 7 6 6 3 -0 1 3 5 nan
nan 8 9 9 12 8 7 14 18 10 7 8 10 10 7 5 4 4 13 15 19 19 17 12 9 8 11 12 10 13 14 15 7 6 10 9 9 7 8 -2 4 9 nan
nan 6 6 9 10 8 7 9 13 11 8 6 7 11 10 7 11 4 0 2 6 12 16 14 10 9 10 12 12 11 15 14 7 9 15 6 9 10 7 2 2 7 nan
nan 8 5 6 8 6 8 10 11 12 5 8 7 8 10 8 13 16 9 6 5 4 8 14 13 13 13 15 17 12 17 13 3 4 14 11 9 11 8 0 -4 6 nan
nan 9 9 7 11 2 6 13 12 13 9 7 9 7 13 7 8 20 16 9 9 6 2 6 8 8 8 12 22 18 11 15 11 4 10 12 9 14 11 7 -5 -1 nan
nan nan nan nan nan nan nan nan nan nan nan nan nan nan nan nan nan nan nan nan nan nan nan nan nan nan nan nan nan nan nan nan nan nan nan nan nan nan nan nan nan nan nan
CAPE
0 0 0 0 0 0 0 0 0 179 80 34 183 168 556 481 486 527 138 122 181 721 1521 1959 1770 1834 1921 1594 1311 1348 1316 1070 1295 1276 1007 821 742 802 837 775 668 628 607
0 0 0 0 0 0 0 0 0 0 0 58 73 119 280 50 3 200 300 150 208 44 464 1009 1682 1707 1911 1635 1351 1288 1250 1185 1243 1248 990 705 622 619 624 602 547 525 558
0 0 0 0 0 0 0 0 0 0 0 0 1 42 31 84 193 110 92 115 185 190 90 334 273 255 1522 1593 1400 1336 1240 1034 1093 1117 956 684 534 483 428 365 301 430 540
0 0 0 0 0 0 0 0 0 0 0 0 0 1 3 0 29 8 82 64 115 258 47 138 38 65 183 1146 1559 1582 1555 1187 1050 1038 874 660 533 419 350 253 190 199 354
0 0 0 0 0 0 0 0 0 0 0 0 0 0 1 0 0 10 45 0 0 28 24 0 0 0 16 467 1429 1941 1918 1592 1265 1180 938 700 545 415 325 253 191 169 192
0 0 0 0 0 0 0 0 0 0 0 0 0 0 0 0 0 0 0 0 0 0 48 1 0 0 0 145 1128 2029 2143 2068 1729 1449 1202 896 612 411 296 259 237 198 178
0 0 0 0 0 0 0 0 0 0 0 0 0 0 0 0 0 13 0 0 0 0 8 199 458 136 143 23 610 1709 2069 2351 2031 1667 1263 937 646 374 257 222 211 197 188
0 0 0 0 1 7 14 12 0 0 0 0 7 0 0 0 0 0 14 14 13 3 0 20 163 358 238 75 112 743 1823 2245 2121 1763 1277 806 563 393 250 229 222 194 184
0 0 0 10 8 10 12 10 12 7 1 3 0 10 16 3 0 0 0 21 73 52 151 137 121 220 406 297 82 59 325 684 1630 1746 1376 878 548 423 310 254 228 213 188
0 0 11 12 6 9 11 13 17 22 16 18 2 0 1 4 10 0 0 17 70 85 76 181 273 240 524 391 271 131 82 63 189 911 1289 1110 683 516 374 298 244 218 204
0 5 8 7 7 13 15 19 17 20 27 30 24 14 6 5 0 17 1 0 0 94 159 85 231 357 450 366 421 341 18 0 16 136 706 1048 853 607 457 356 291 249 204
2 1 7 7 12 13 17 17 17 18 17 16 32 30 18 18 5 9 8 0 1 0 0 2 209 258 292 325 470 501 50 0 0 6 225 502 781 685 466 417 364 311 255
1 5 7 4 10 14 19 21 16 13 16 15 14 17 21 31 12 9 10 7 12 3 1 0 8 118 300 287 302 344 96 0 0 0 2 74 248 422 368 300 283 270 299
11 12 17 3 6 21 16 22 30 9 13 11 15 15 24 27 35 17 21 15 5 0 1 0 0 0 79 263 341 280 31 18 0 1 1 0 14 82 201 193 192 178 216
15 11 9 8 8 20 15 22 14 12 8 9 15 12 20 20 33 20 12 12 13 7 0 0 0 9 64 13 0 0 78 214 2 1 1 1 1 1 11 58 51 64 86
10 11 10 6 6 13 8 20 11 13 11 8 10 10 4 4 2 1 15 33 13 2 3 15 0 0 0 0 0 0 1 1 0 0 0 1 1 1 1 1 1 1 5
7 7 13 10 7 6 6 6 11 8 6 6 10 8 8 13 5 2 2 4 5 12 38 21 7 0 0 1 0 0 1 2 8 2 1 0 0 1 1 0 0 1 1
3 0 2 7 6 5 7 5 4 7 5 3 5 7 8 9 5 3 3 3 1 4 5 50 1 2 2 0 1 5 7 3 2 5 4 3 5 2 1 1 0 1 0
1 0 0 0 1 1 2 3 4 4 4 3 3 2 13 7 6 6 5 4 4 2 4 2 3 1 4 1 2 0 7 6 7 4 1 2 5 6 7 7 6 4 2
1 0 0 0 0 0 0 0 1 0 1 1 2 1 2 11 6 6 5 5 5 3 2 3 5 4 3 2 4 4 3 2 2 1 5 3 3 3 5 5 7 6 7
0 0 0 0 0 1 1 0 0 0 0 0 0 1 1 14 34 25 7 2 2 3 4 3 4 3 3 2 4 4 3 3 2 1 5 4 6 3 5 3 5 8 7
0 0 0 0 0 11 10 2 0 0 0 0 0 0 0 1 2 15 15 11 9 2 5 5 6 4 3 2 2 3 4 0 0 0 1 3 5 2 2 2 9 9 7
0 0 0 0 0 0 10 11 1 0 0 0 0 0 2 2 0 3 5 6 11 11 10 4 4 4 3 2 3 1 1 1 0 0 1 5 0 2 2 4 9 9 8
0 0 0 0 0 0 5 5 3 0 0 0 0 0 0 0 0 0 0 0 0 0 0 2 0 0 0 0 0 0 0 2 0 0 0 3 0 0 0 0 5 8 9
0 0 0 0 0 0 3 1 0 0 0 0 0 0 0 0 3 3 0 0 0 0 1 4 2 2 0 1 0 0 0 0 0 0 0 0 0 0 0 0 0 0 4
0 0 0 0 0 0 3 4 0 0 0 0 0 0 5 0 5 4 0 0 0 0 0 0 0 0 0 0 0 0 0 0 0 0 0 0 0 0 0 0 0 0 0